KF7SOJ Weather Reports


time (UTC)temp
C
wind
direction
speed
KPH
gust
KPH
rain 1hr
cm
rain 24hr
cm
rain mn
cm
humidity
%
barometer
mb
20260906223118 27 70 24.1 25.7 0.00 0.00 0.00 51 928.5
20260906222617 27 93 19.3 20.9 0.00 0.00 0.00 51 928.6
20260906222115 27 62 14.5 20.9 0.00 0.00 0.00 51 928.8
20260906221614 27 100 14.5 17.7 0.00 0.00 0.00 52 928.8
20260906221109 26 80 20.9 24.1 0.00 0.00 0.00 52 928.8
20260906220604 26 80 20.9 24.1 0.00 0.00 0.00 52 928.8
20260906220100 27 100 19.3 20.9 0.00 0.00 0.00 52 928.7
20260906215558 27 102 17.7 22.5 0.00 0.00 0.00 51 928.7
20260906215057 26 64 16.1 19.3 0.00 0.00 0.00 53 928.8
20260906214556 26 94 12.9 20.9 0.00 0.00 0.00 54 928.6
20260906214051 26 59 17.7 22.5 0.00 0.00 0.00 53 928.9
20260906213550 26 70 17.7 17.7 0.00 0.00 0.00 53 929.1
20260906213045 26 80 14.5 17.7 0.00 0.00 0.00 53 928.7
20260906212537 26 78 12.9 14.5 0.00 0.00 0.00 54 929.0
20260906212033 26 78 12.9 14.5 0.00 0.00 0.00 54 929.0
20260906211533 26 78 12.9 14.5 0.00 0.00 0.00 54 929.1
20260906211028 26 78 12.9 14.5 0.00 0.00 0.00 54 929.3
20260906210524 26 111 20.9 22.5 0.00 0.00 0.00 53 929.3
20260906210023 26 99 12.9 16.1 0.00 0.00 0.00 54 929.3
20260906205519 26 111 12.9 19.3 0.00 0.00 0.00 54 929.3
20260906205015 -17 0.0 0.0 0.00 0.00 0.00 929.5
20260906204514 -17 0.0 0.0 0.00 0.00 0.00 929.7
20260906204009 -17 0.0 0.0 0.00 0.00 0.00 929.7
20260906203504 25 73 14.5 17.7 0.00 0.00 0.00 57 929.7
20260906203003 25 73 14.5 17.7 0.00 0.00 0.00 57 929.9
20260906202500 25 73 14.5 17.7 0.00 0.00 0.00 57 929.9
20260906201955 25 73 14.5 17.7 0.00 0.00 0.00 57 929.9
20260906201449 25 73 14.5 17.7 0.00 0.00 0.00 57 930.0
20260906200944 25 73 14.5 17.7 0.00 0.00 0.00 57 930.1
20260906200441 25 73 14.5 17.7 0.00 0.00 0.00 57 930.2
20260906195940 25 73 14.5 17.7 0.00 0.00 0.00 57 930.3
20260906195437 25 73 14.5 17.7 0.00 0.00 0.00 57 930.3
20260906194933 25 73 14.5 17.7 0.00 0.00 0.00 57 930.2
20260906194428 25 73 14.5 17.7 0.00 0.00 0.00 57 930.5
20260906193924 25 73 14.5 17.7 0.00 0.00 0.00 57 930.4
20260906193419 24 125 6.4 6.4 0.00 0.00 0.00 60 930.4
20260906192914 24 105 9.7 14.5 0.00 0.00 0.00 60 930.7
20260906192414 24 88 6.4 8.0 0.00 0.00 0.00 60 930.5
20260906191913 24 115 9.7 9.7 0.00 0.00 0.00 60 930.7
20260906191409 24 115 9.7 9.7 0.00 0.00 0.00 60 931.0
20260906190908 22 48 8.0 11.3 0.00 0.00 0.00 64 930.9
20260906190407 22 48 8.0 11.3 0.00 0.00 0.00 64 930.8
20260906185902 22 48 8.0 11.3 0.00 0.00 0.00 64 931.0
20260906185401 22 48 8.0 11.3 0.00 0.00 0.00 64 931.1
20260906184900 22 359 6.4 9.7 0.00 0.00 0.00 63 931.3
20260906184355 22 359 6.4 9.7 0.00 0.00 0.00 63 931.5
20260906183851 22 359 6.4 9.7 0.00 0.00 0.00 63 931.5
20260906183348 22 359 6.4 16.1 0.00 0.00 0.00 63 931.5
20260906182847 22 342 9.7 9.7 0.00 0.00 0.00 64 931.8
20260906182343 22 336 4.8 9.7 0.00 0.00 0.00 64 931.9
20260906181843 21 70 6.4 8.0 0.00 0.00 0.00 70 931.9
20260906181340 21 70 6.4 8.0 0.00 0.00 0.00 70 932.0
20260906180835 21 70 6.4 8.0 0.00 0.00 0.00 70 932.0
20260906180330 21 70 6.4 8.0 0.00 0.00 0.00 70 932.0
20260906175827 21 70 6.4 8.0 0.00 0.00 0.00 70 932.3
20260906175323 21 70 6.4 8.0 0.00 0.00 0.00 70 932.3
20260906174822 21 70 6.4 8.0 0.00 0.00 0.00 70 932.4
20260906174321 21 70 6.4 8.0 0.00 0.00 0.00 70 932.6
20260906173816 21 70 6.4 8.0 0.00 0.00 0.00 70 932.6
20260906173312 21 70 6.4 8.0 0.00 0.00 0.00 70 932.4
20260906172811 21 17 11.3 14.5 0.00 0.00 0.00 69 932.4
20260906172308 20 22 8.0 11.3 0.00 0.00 0.00 69 932.7
20260906171808 20 22 8.0 11.3 0.00 0.00 0.00 69 932.6
20260906171302 20 22 8.0 11.3 0.00 0.00 0.00 69 932.6
20260906170758 20 22 8.0 11.3 0.00 0.00 0.00 69 932.8
20260906170254 20 22 8.0 11.3 0.00 0.00 0.00 69 932.6
20260906165750 20 22 8.0 11.3 0.00 0.00 0.00 69 932.7
20260906165249 20 27 9.7 11.3 0.00 0.00 0.00 68 932.8
20260906164750 20 345 4.8 6.4 0.00 0.00 0.00 69 932.8
20260906164250 20 63 6.4 6.4 0.00 0.00 0.00 70 933.0
20260906163746 20 63 6.4 6.4 0.00 0.00 0.00 70 932.9
20260906163242 20 27 8.0 9.7 0.00 0.00 0.00 70 933.1
20260906162739 20 355 4.8 9.7 0.00 0.00 0.00 70 932.9
20260906162233 20 314 1.6 4.8 0.00 0.00 0.00 71 933.0
20260906161733 20 312 1.6 3.2 0.00 0.00 0.00 71 933.1
20260906161233 20 9 4.8 6.4 0.00 0.00 0.00 69 932.9
20260906160732 20 5 3.2 6.4 0.00 0.00 0.00 68 933.0
20260906160231 20 53 1.6 1.6 0.00 0.00 0.00 68 932.9
20260906155729 19 246 0.0 1.6 0.00 0.00 0.00 69 933.0
20260906155224 19 246 0.0 1.6 0.00 0.00 0.00 69 933.0
20260906154720 19 246 0.0 1.6 0.00 0.00 0.00 69 932.9
20260906154215 19 246 0.0 1.6 0.00 0.00 0.00 69 932.8
20260906153713 -17 0.0 0.0 0.00 0.00 0.00 932.9
20260906153208 17 234 4.8 6.4 0.00 0.00 0.00 73 933.0
20260906152703 17 234 4.8 6.4 0.00 0.00 0.00 73 932.9
20260906152202 17 234 4.8 6.4 0.00 0.00 0.00 73 932.7
20260906151657 17 234 4.8 6.4 0.00 0.00 0.00 73 932.7
20260906151154 17 234 4.8 6.4 0.00 0.00 0.00 73 932.9
20260906150649 17 234 4.8 6.4 0.00 0.00 0.00 73 933.0
20260906150144 17 234 4.8 6.4 0.00 0.00 0.00 73 932.9
20260906145643 17 234 4.8 6.4 0.00 0.00 0.00 73 933.0
20260906145143 17 234 4.8 6.4 0.00 0.00 0.00 73 933.1
20260906144637 17 234 4.8 6.4 0.00 0.00 0.00 73 933.0
20260906144132 17 234 4.8 6.4 0.00 0.00 0.00 73 932.9
20260906143632 16 244 9.7 9.7 0.00 0.00 0.00 74 932.9
20260906143130 16 244 9.7 9.7 0.00 0.00 0.00 74 932.8
20260906142628 16 245 9.7 12.9 0.00 0.00 0.00 74 932.8
20260906142123 16 281 8.0 16.1 0.00 0.00 0.00 75 932.9
20260906141622 16 255 6.4 9.7 0.00 0.00 0.00 77 933.0
20260906141118 16 203 6.4 6.4 0.00 0.00 0.00 76 932.9
20260906140617 16 203 6.4 11.3 0.00 0.00 0.00 77 933.1
20260906140112 15 255 6.4 9.7 0.00 0.00 0.00 77 932.6
20260906135609 15 234 12.9 14.5 0.00 0.00 0.00 77 933.0
20260906135105 15 241 8.0 12.9 0.00 0.00 0.00 77 932.9
20260906134600 15 265 6.4 8.0 0.00 0.00 0.00 77 932.3
20260906134100 15 294 3.2 6.4 0.00 0.00 0.00 76 932.3
20260906133556 16 288 8.0 9.7 0.00 0.00 0.00 75 932.5
20260906133051 16 255 4.8 9.7 0.00 0.00 0.00 76 932.7
20260906132547 15 231 8.0 9.7 0.00 0.00 0.00 77 932.8
20260906132042 15 208 6.4 6.4 0.00 0.00 0.00 77 932.9
20260906131537 15 173 0.0 4.8 0.00 0.00 0.00 79 932.7
20260906131032 15 210 6.4 9.7 0.00 0.00 0.00 79 933.0
20260906130532 15 194 3.2 8.0 0.00 0.00 0.00 79 932.6
20260906130027 15 358 4.8 4.8 0.00 0.00 0.00 78 932.3
20260906125524 16 232 3.2 4.8 0.00 0.00 0.00 76 932.3
20260906125019 16 232 3.2 4.8 0.00 0.00 0.00 76 932.6
20260906124514 15 145 0.0 0.0 0.00 0.00 0.00 77 932.7
20260906124009 15 299 0.0 0.0 0.00 0.00 0.00 78 932.4
20260906123508 15 299 0.0 0.0 0.00 0.00 0.00 78 932.6
20260906123003 15 254 3.2 4.8 0.00 0.00 0.00 78 932.6
20260906122457 15 3 4.8 4.8 0.00 0.00 0.00 74 932.6
20260906121954 15 3 4.8 4.8 0.00 0.00 0.00 74 932.5
20260906121449 15 3 4.8 4.8 0.00 0.00 0.00 74 932.5
20260906120946 15 3 4.8 4.8 0.00 0.00 0.00 74 932.6
20260906120441 15 3 4.8 4.8 0.00 0.00 0.00 74 932.6
20260906115937 15 3 4.8 4.8 0.00 0.00 0.00 74 932.6
20260906115433 15 3 4.8 4.8 0.00 0.00 0.00 74 932.7
20260906114932 15 3 4.8 4.8 0.00 0.00 0.00 74 932.9
20260906114426 15 3 4.8 4.8 0.00 0.00 0.00 74 932.8
20260906113922 15 3 4.8 4.8 0.00 0.00 0.00 74 932.7
20260906113421 15 3 4.8 4.8 0.00 0.00 0.00 74 932.6
20260906112917 15 3 4.8 4.8 0.00 0.00 0.00 74 932.7
20260906112412 -17 0.0 0.0 0.00 0.00 0.00 932.8
20260906111908 -17 0.0 0.0 0.00 0.00 0.00 932.7
20260906111407 -17 0.0 0.0 0.00 0.00 0.00 932.4
20260906110902 -17 0.0 0.0 0.00 0.00 0.00 932.5
20260906110357 17 17 1.6 1.6 0.00 0.00 0.00 68 932.5
20260906105856 17 17 1.6 1.6 0.00 0.00 0.00 68 932.1
20260906105352 17 17 1.6 1.6 0.00 0.00 0.00 68 932.4
20260906104848 17 17 1.6 1.6 0.00 0.00 0.00 68 932.3
20260906104346 17 17 1.6 1.6 0.00 0.00 0.00 68 932.7
20260906103845 17 17 1.6 1.6 0.00 0.00 0.00 68 933.0
20260906103344 17 17 1.6 1.6 0.00 0.00 0.00 68 933.1
20260906102840 17 17 1.6 1.6 0.00 0.00 0.00 68 933.3
20260906102338 17 17 1.6 1.6 0.00 0.00 0.00 68 933.1
20260906101834 17 17 1.6 1.6 0.00 0.00 0.00 68 933.0
20260906101329 17 17 1.6 1.6 0.00 0.00 0.00 68 933.1
20260906100825 17 346 3.2 6.4 0.00 0.00 0.00 68 933.0
20260906100323 17 343 4.8 9.7 0.00 0.00 0.00 68 932.8
20260906095819 17 349 8.0 9.7 0.00 0.00 0.00 67 932.9
20260906095314 17 355 8.0 8.0 0.00 0.00 0.00 67 932.7
20260906094813 17 346 9.7 11.3 0.00 0.00 0.00 67 932.4
20260906094309 17 350 8.0 8.0 0.00 0.00 0.00 66 932.5
20260906093805 17 355 6.4 8.0 0.00 0.00 0.00 66 932.4
20260906093301 17 344 8.0 9.7 0.00 0.00 0.00 66 932.5
20260906092755 17 337 6.4 11.3 0.00 0.00 0.00 66 932.6
20260906092250 17 350 4.8 6.4 0.00 0.00 0.00 65 932.6
20260906091745 17 358 4.8 6.4 0.00 0.00 0.00 65 932.6
20260906091241 17 343 4.8 8.0 0.00 0.00 0.00 64 932.4
20260906090738 17 354 6.4 8.0 0.00 0.00 0.00 64 932.6
20260906090236 17 341 4.8 8.0 0.00 0.00 0.00 64 932.4
20260906085736 17 342 6.4 6.4 0.00 0.00 0.00 62 932.4
20260906085235 17 341 8.0 9.7 0.00 0.00 0.00 62 932.3
20260906084730 17 356 8.0 9.7 0.00 0.00 0.00 61 932.4
20260906084231 17 0 4.8 6.4 0.00 0.00 0.00 61 932.6
20260906083725 17 353 9.7 9.7 0.00 0.00 0.00 60 932.6
20260906083221 17 344 6.4 8.0 0.00 0.00 0.00 60 932.5
20260906082716 17 357 8.0 9.7 0.00 0.00 0.00 60 932.6
20260906082211 17 356 9.7 11.3 0.00 0.00 0.00 59 932.7
20260906081707 17 351 8.0 8.0 0.00 0.00 0.00 59 932.6
20260906081201 17 359 8.0 9.7 0.00 0.00 0.00 58 932.5
20260906080659 17 353 8.0 9.7 0.00 0.00 0.00 58 932.3
20260906080154 17 348 6.4 8.0 0.00 0.00 0.00 58 932.6
20260906075654 17 355 6.4 9.7 0.00 0.00 0.00 58 932.7
20260906075148 17 358 8.0 9.7 0.00 0.00 0.00 57 932.7
20260906074644 17 0 4.8 6.4 0.00 0.00 0.00 57 932.5
20260906074143 17 358 8.0 8.0 0.00 0.00 0.00 56 932.7
20260906073637 18 354 6.4 8.0 0.00 0.00 0.00 55 932.9
20260906073133 18 2 6.4 6.4 0.00 0.00 0.00 55 932.8
20260906072628 18 2 6.4 8.0 0.00 0.00 0.00 55 932.8
20260906072125 18 0 6.4 8.0 0.00 0.00 0.00 55 932.9
20260906071621 18 356 8.0 8.0 0.00 0.00 0.00 55 932.8
20260906071121 18 3 6.4 8.0 0.00 0.00 0.00 55 932.9
20260906070617 18 351 8.0 9.7 0.00 0.00 0.00 54 932.9
20260906070113 18 12 6.4 8.0 0.00 0.00 0.00 54 932.8
20260906065612 18 18 6.4 6.4 0.00 0.00 0.00 53 932.9
20260906065108 18 357 8.0 8.0 0.00 0.00 0.00 54 932.8
20260906064603 17 6 4.8 6.4 0.00 0.00 0.00 54 933.1
20260906064059 17 357 4.8 6.4 0.00 0.00 0.00 54 933.0
20260906063554 18 4 6.4 6.4 0.00 0.00 0.00 55 933.2
20260906063050 18 4 6.4 6.4 0.00 0.00 0.00 55 933.0
20260906062545 18 23 6.4 8.0 0.00 0.00 0.00 55 933.0
20260906062044 18 21 8.0 9.7 0.00 0.00 0.00 54 933.0
20260906061540 18 9 6.4 8.0 0.00 0.00 0.00 54 933.0
20260906061039 18 26 8.0 8.0 0.00 0.00 0.00 53 933.2
20260906060536 20 358 8.0 9.7 0.00 0.00 0.00 46 933.1
20260906060033 20 358 8.0 9.7 0.00 0.00 0.00 46 933.2
20260906055529 20 358 8.0 9.7 0.00 0.00 0.00 46 933.2
20260906055024 20 358 8.0 9.7 0.00 0.00 0.00 46 933.1
20260906054524 20 358 8.0 9.7 0.00 0.00 0.00 46 933.2
20260906054019 20 358 8.0 9.7 0.00 0.00 0.00 46 933.3
20260906053515 20 358 8.0 9.7 0.00 0.00 0.00 46 933.1
20260906053011 20 6 6.4 6.4 0.00 0.00 0.00 46 933.0
20260906052507 20 3 9.7 12.9 0.00 0.00 0.00 46 933.0
20260906052003 20 1 6.4 8.0 0.00 0.00 0.00 46 933.1
20260906051459 20 359 8.0 9.7 0.00 0.00 0.00 46 933.3
20260906050955 20 352 8.0 9.7 0.00 0.00 0.00 45 933.2
20260906050454 20 351 8.0 8.0 0.00 0.00 0.00 43 933.2
20260906045953 20 351 8.0 8.0 0.00 0.00 0.00 43 932.9
20260906045452 20 351 8.0 8.0 0.00 0.00 0.00 43 932.9
20260906044948 20 0 8.0 9.7 0.00 0.00 0.00 43 932.9
20260906044443 20 11 8.0 12.9 0.00 0.00 0.00 43 932.8
20260906043939 20 2 11.3 12.9 0.00 0.00 0.00 43 932.8
20260906043435 20 1 9.7 12.9 0.00 0.00 0.00 43 932.8
20260906042930 20 0 8.0 11.3 0.00 0.00 0.00 42 932.9
20260906042429 20 346 11.3 14.5 0.00 0.00 0.00 42 933.1
20260906041924 20 352 8.0 11.3 0.00 0.00 0.00 42 933.0
20260906041420 20 346 9.7 9.7 0.00 0.00 0.00 42 932.9
20260906040920 20 342 12.9 14.5 0.00 0.00 0.00 43 932.8
20260906040415 20 343 9.7 12.9 0.00 0.00 0.00 44 932.8
20260906035911 20 347 11.3 12.9 0.00 0.00 0.00 44 932.7
20260906035406 20 355 11.3 12.9 0.00 0.00 0.00 44 932.7
20260906034901 20 0 6.4 11.3 0.00 0.00 0.00 43 932.6
20260906034355 20 0 9.7 11.3 0.00 0.00 0.00 43 932.7
20260906033852 20 350 9.7 9.7 0.00 0.00 0.00 43 932.7
20260906033351 20 358 6.4 9.7 0.00 0.00 0.00 42 932.6
20260906032847 20 3 8.0 8.0 0.00 0.00 0.00 42 932.9
20260906032343 20 353 6.4 8.0 0.00 0.00 0.00 42 932.7
20260906031838 20 356 6.4 8.0 0.00 0.00 0.00 42 932.8
20260906031333 20 357 4.8 8.0 0.00 0.00 0.00 43 932.8
20260906030833 20 1 4.8 6.4 0.00 0.00 0.00 43 932.7
20260906030329 20 11 4.8 9.7 0.00 0.00 0.00 43 932.6
20260906025829 20 19 8.0 8.0 0.00 0.00 0.00 43 932.7
20260906025323 21 28 6.4 9.7 0.00 0.00 0.00 42 932.5
20260906024822 21 22 6.4 9.7 0.00 0.00 0.00 41 932.6
20260906024321 21 15 8.0 9.7 0.00 0.00 0.00 41 932.6
20260906023817 21 33 9.7 9.7 0.00 0.00 0.00 41 932.5
20260906023312 21 29 6.4 8.0 0.00 0.00 0.00 41 932.7
20260906022808 21 16 6.4 9.7 0.00 0.00 0.00 41 932.4
20260906022306 21 26 6.4 9.7 0.00 0.00 0.00 40 932.6
20260906021759 21 25 9.7 9.7 0.00 0.00 0.00 40 932.4
20260906021257 22 34 8.0 9.7 0.00 0.00 0.00 40 932.3
20260906020752 22 31 6.4 9.7 0.00 0.00 0.00 39 932.3
20260906020252 22 26 8.0 9.7 0.00 0.00 0.00 39 932.4
20260906015752 22 25 8.0 9.7 0.00 0.00 0.00 39 932.2
20260906015251 23 25 6.4 8.0 0.00 0.00 0.00 38 932.4
20260906014746 23 37 8.0 14.5 0.00 0.00 0.00 36 932.3
20260906014241 24 40 9.7 14.5 0.00 0.00 0.00 35 932.3
20260906013737 25 53 14.5 14.5 0.00 0.00 0.00 35 932.3
20260906013237 25 47 12.9 16.1 0.00 0.00 0.00 34 932.3
20260906012732 25 39 9.7 14.5 0.00 0.00 0.00 34 932.2
20260906012227 25 47 12.9 14.5 0.00 0.00 0.00 33 932.2
20260906011722 25 66 12.9 16.1 0.00 0.00 0.00 33 932.3
20260906011217 25 49 12.9 17.7 0.00 0.00 0.00 33 932.3
20260906010713 25 69 9.7 14.5 0.00 0.00 0.00 34 932.3
20260906010209 25 65 8.0 12.9 0.00 0.00 0.00 34 932.1
20260906005709 25 78 12.9 17.7 0.00 0.00 0.00 34 932.3
20260906005208 26 83 19.3 20.9 0.00 0.00 0.00 33 932.2
20260906004707 26 83 14.5 19.3 0.00 0.00 0.00 32 932.2
20260906004202 26 84 14.5 19.3 0.00 0.00 0.00 32 932.1
20260906003658 26 80 16.1 20.9 0.00 0.00 0.00 31 932.2
20260906003154 26 92 11.3 19.3 0.00 0.00 0.00 32 932.1
20260906002654 27 88 9.7 17.7 0.00 0.00 0.00 30 932.2
20260906002148 27 87 12.9 20.9 0.00 0.00 0.00 29 932.3
20260906001644 27 80 22.5 22.5 0.00 0.00 0.00 27 932.0
20260906001143 27 85 14.5 25.7 0.00 0.00 0.00 28 932.0
20260906000639 27 87 17.7 24.1 0.00 0.00 0.00 27 932.1
20260906000134 27 101 16.1 22.5 0.00 0.00 0.00 28 932.2
20260905235633 27 98 17.7 20.9 0.00 0.00 0.00 27 932.3
20260905235129 27 93 19.3 20.9 0.00 0.00 0.00 28 932.2
20260905234624 27 100 20.9 20.9 0.00 0.00 0.00 27 932.1
20260905234120 27 92 20.9 20.9 0.00 0.00 0.00 26 931.9
20260905233620 27 97 17.7 19.3 0.00 0.00 0.00 26 931.9
20260905233114 27 81 19.3 24.1 0.00 0.00 0.00 26 931.9
20260905232609 28 88 24.1 24.1 0.00 0.00 0.00 26 932.1
20260905232105 27 93 11.3 19.3 0.00 0.00 0.00 26 932.0
20260905231600 28 115 22.5 24.1 0.00 0.00 0.00 25 931.9
20260905231056 28 115 22.5 24.1 0.00 0.00 0.00 25 931.8
20260905230556 28 86 16.1 27.4 0.00 0.00 0.00 26 932.0
20260905230055 28 101 16.1 22.5 0.00 0.00 0.00 25 932.0
20260905225554 28 98 19.3 22.5 0.00 0.00 0.00 25 932.0
20260905225050 28 78 9.7 14.5 0.00 0.00 0.00 26 931.9
20260905224550 28 111 22.5 25.7 0.00 0.00 0.00 26 931.9
20260905224049 28 118 22.5 24.1 0.00 0.00 0.00 26 931.8
20260905223547 27 106 19.3 22.5 0.00 0.00 0.00 26 931.9